DW7918 Weather Reports


time (UTC)temp
F
wind
direction
speed
knots
gust
knots
rain 1hr
in
rain 24hr
in
rain mn
in
humidity
%
barometer
mb
20260510192003 60 75 4.3 8.7 0.00 0.00 0.00 23 1018.9
20260510191803 60 69 3.5 8.7 0.00 0.00 0.00 25 1018.8
20260510191603 60 70 3.5 13.0 0.00 0.00 0.00 22 1018.8
20260510191403 60 71 4.3 13.0 0.00 0.00 0.00 24 1018.9
20260510191203 60 46 4.3 13.0 0.00 0.00 0.00 24 1018.9
20260510191003 60 28 5.2 13.0 0.00 0.00 0.00 24 1018.9
20260510190803 60 18 6.1 13.0 0.00 0.00 0.00 22 1018.8
20260510190603 60 21 7.0 12.2 0.00 0.00 0.00 22 1018.9
20260510190403 60 17 7.0 13.9 0.00 0.00 0.00 24 1018.9
20260510190203 60 28 7.0 13.9 0.00 0.00 0.00 25 1018.9
20260510190003 60 48 6.1 13.9 0.00 0.00 0.00 26 1018.8
20260510185803 60 68 6.1 13.9 0.00 0.00 0.00 27 1018.7
20260510185603 59 78 6.1 13.9 0.00 0.00 0.00 27 1018.7
20260510185424 59 87 5.2 9.6 0.00 0.00 0.00 25 1018.7
20260510185203 59 82 5.2 9.6 0.00 0.00 0.00 21 1018.7
20260510185003 59 72 5.2 9.6 0.00 0.00 0.00 25 1018.7
20260510184803 59 73 5.2 11.3 0.00 0.00 0.00 27 1018.7
20260510184603 59 74 5.2 11.3 0.00 0.00 0.00 25 1018.8
20260510184424 59 67 4.3 11.3 0.00 0.00 0.00 28 1018.8
20260510184224 59 58 4.3 11.3 0.00 0.00 0.00 26 1018.8
20260510184003 60 37 5.2 11.3 0.00 0.00 0.00 26 1018.7
20260510183803 60 9 4.3 8.7 0.00 0.00 0.00 25 1018.7
20260510183624 61 2 4.3 11.3 0.00 0.00 0.00 26 1018.7
20260510183403 61 356 5.2 11.3 0.00 0.00 0.00 26 1018.7
20260510183203 61 357 5.2 11.3 0.00 0.00 0.00 25 1018.7
20260510183003 60 4 5.2 11.3 0.00 0.00 0.00 27 1018.8
20260510182803 60 6 6.1 11.3 0.00 0.00 0.00 27 1018.9
20260510182603 60 4 6.1 10.4 0.00 0.00 0.00 25 1018.9
20260510182403 60 8 6.1 10.4 0.00 0.00 0.00 28 1018.9
20260510182203 60 18 6.1 10.4 0.00 0.00 0.00 26 1018.9
20260510182003 60 25 6.1 10.4 0.00 0.00 0.00 25 1018.9
20260510181803 60 30 6.1 10.4 0.00 0.00 0.00 25 1018.8
20260510181603 60 45 5.2 10.4 0.00 0.00 0.00 27 1018.8
20260510181403 60 50 6.1 10.4 0.00 0.00 0.00 28 1018.9
20260510181203 60 42 5.2 10.4 0.00 0.00 0.00 27 1018.8
20260510181024 60 44 5.2 10.4 0.00 0.00 0.00 30 1018.9
20260510180803 60 52 5.2 10.4 0.00 0.00 0.00 27 1018.8
20260510180603 59 40 4.3 10.4 0.00 0.00 0.00 27 1018.8
20260510180403 59 36 4.3 9.6 0.00 0.00 0.00 28 1018.8
20260510180203 59 37 4.3 9.6 0.00 0.00 0.00 27 1018.7
20260510180003 59 40 4.3 10.4 0.00 0.00 0.00 27 1018.7
20260510175803 58 44 5.2 10.4 0.00 0.00 0.00 27 1018.7
20260510175603 58 58 5.2 10.4 0.00 0.00 0.00 27 1018.7
20260510175424 58 67 6.1 11.3 0.00 0.00 0.00 24 1018.7
20260510175203 58 75 6.1 11.3 0.00 0.00 0.00 26 1018.7
20260510175003 58 75 5.2 11.3 0.00 0.00 0.00 24 1018.6
20260510174824 58 63 5.2 11.3 0.00 0.00 0.00 26 1018.7
20260510174603 58 35 5.2 11.3 0.00 0.00 0.00 24 1018.7
20260510174403 58 16 4.3 7.8 0.00 0.00 0.00 28 1018.6
20260510174203 59 3 4.3 7.8 0.00 0.00 0.00 26 1018.6
20260510174003 59 4 4.3 7.8 0.00 0.00 0.00 26 1018.6
20260510173803 59 7 4.3 7.8 0.00 0.00 0.00 28 1018.6
20260510173603 58 12 4.3 11.3 0.00 0.00 0.00 30 1018.6
20260510173403 59 17 4.3 11.3 0.00 0.00 0.00 27 1018.6
20260510173203 59 29 4.3 11.3 0.00 0.00 0.00 29 1018.5
20260510173004 59 48 4.3 11.3 0.00 0.00 0.00 32 1018.5
20260510172803 59 56 4.3 11.3 0.00 0.00 0.00 34 1018.5
20260510172603 58 66 4.3 10.4 0.00 0.00 0.00 31 1018.5
20260510172403 58 69 4.3 10.4 0.00 0.00 0.00 26 1018.4
20260510172204 58 67 3.5 10.4 0.00 0.00 0.00 25 1018.4
20260510172004 58 46 3.5 7.8 0.00 0.00 0.00 30 1018.4
20260510171803 58 43 3.5 7.8 0.00 0.00 0.00 29 1018.5
20260510171624 58 45 4.3 7.8 0.00 0.00 0.00 28 1018.4
20260510171403 58 41 4.3 7.8 0.00 0.00 0.00 27 1018.4
20260510171203 58 28 4.3 10.4 0.00 0.00 0.00 26 1018.6
20260510171003 59 30 4.3 10.4 0.00 0.00 0.00 25 1018.5
20260510170803 59 34 4.3 10.4 0.00 0.00 0.00 24 1018.5
20260510170603 59 19 5.2 10.4 0.00 0.00 0.00 28 1018.5
20260510170403 59 10 4.3 10.4 0.00 0.00 0.00 29 1018.6
20260510170203 58 19 5.2 13.0 0.00 0.00 0.00 28 1018.6
20260510170003 58 15 5.2 13.0 0.00 0.00 0.00 28 1018.6
20260510165803 58 8 4.3 13.0 0.00 0.00 0.00 26 1018.7
20260510165603 58 13 4.3 13.0 0.00 0.00 0.00 29 1018.7
20260510165403 58 11 4.3 13.0 0.00 0.00 0.00 29 1018.6
20260510165203 58 359 4.3 9.6 0.00 0.00 0.00 27 1018.6
20260510165024 58 4 4.3 8.7 0.00 0.00 0.00 24 1018.5
20260510164803 58 12 4.3 8.7 0.00 0.00 0.00 29 1018.5
20260510164624 58 17 4.3 8.7 0.00 0.00 0.00 26 1018.6
20260510164403 58 50 3.5 8.7 0.00 0.00 0.00 25 1018.6
20260510164203 58 94 2.6 8.7 0.00 0.00 0.00 29 1018.6
20260510164003 58 123 1.7 6.1 0.00 0.00 0.00 26 1018.5
20260510163824 57 111 1.7 6.1 0.00 0.00 0.00 24 1018.5
20260510163624 57 88 1.7 6.1 0.00 0.00 0.00 28 1018.6
20260510163403 57 87 1.7 7.0 0.00 0.00 0.00 28 1018.5
20260510163224 57 92 2.6 9.6 0.00 0.00 0.00 25 1018.5
20260510163003 57 101 2.6 9.6 0.00 0.00 0.00 25 1018.5
20260510162803 57 98 2.6 9.6 0.00 0.00 0.00 24 1018.6
20260510162603 57 50 3.5 9.6 0.00 0.00 0.00 26 1018.6
20260510162403 57 11 4.3 9.6 0.00 0.00 0.00 25 1018.6
20260510162224 57 360 4.3 7.8 0.00 0.00 0.00 25 1018.5
20260510162003 57 7 4.3 7.8 0.00 0.00 0.00 29 1018.6
20260510161824 57 3 5.2 7.8 0.00 0.00 0.00 27 1018.6
20260510161603 57 10 3.5 7.8 0.00 0.00 0.00 26 1018.5
20260510161403 57 26 3.5 7.0 0.00 0.00 0.00 31 1018.6
20260510161203 57 16 3.5 7.0 0.00 0.00 0.00 28 1018.4
20260510161003 57 3 2.6 6.1 0.00 0.00 0.00 29 1018.6
20260510160824 57 350 2.6 6.1 0.00 0.00 0.00 29 1018.6
20260510160603 57 357 2.6 5.2 0.00 0.00 0.00 29 1018.4
20260510160403 57 1 2.6 5.2 0.00 0.00 0.00 31 1018.5
20260510160203 57 358 2.6 5.2 0.00 0.00 0.00 30 1018.4
20260510160003 56 358 2.6 5.2 0.00 0.00 0.00 30 1018.5
20260510155803 56 19 2.6 5.2 0.00 0.00 0.00 29 1018.5
20260510155603 56 30 2.6 7.0 0.00 0.00 0.00 29 1018.5
20260510155403 56 26 3.5 7.0 0.00 0.00 0.00 29 1018.6
20260510155203 56 35 3.5 7.8 0.00 0.00 0.00 28 1018.5
20260510155003 56 44 3.5 8.7 0.00 0.00 0.00 29 1018.6
20260510154803 56 42 4.3 8.7 0.00 0.00 0.00 28 1018.5
20260510154603 56 39 4.3 8.7 0.00 0.00 0.00 29 1018.6
20260510154403 56 45 4.3 8.7 0.00 0.00 0.00 29 1018.5
20260510154224 56 38 4.3 9.6 0.00 0.00 0.00 30 1018.5
20260510154003 56 46 4.3 9.6 0.00 0.00 0.00 31 1018.5
20260510153803 56 52 3.5 9.6 0.00 0.00 0.00 28 1018.5
20260510153603 56 67 3.5 9.6 0.00 0.00 0.00 30 1018.4
20260510153403 56 112 3.5 9.6 0.00 0.00 0.00 30 1018.4
20260510153204 56 161 2.6 7.0 0.00 0.00 0.00 32 1018.4
20260510153003 56 171 2.6 7.0 0.00 0.00 0.00 28 1018.3
20260510152803 56 170 2.6 7.0 0.00 0.00 0.00 27 1018.3
20260510152603 56 145 2.6 7.0 0.00 0.00 0.00 26 1018.2
20260510152403 56 117 2.6 7.0 0.00 0.00 0.00 27 1018.2
20260510152203 55 88 1.7 6.1 0.00 0.00 0.00 31 1018.2
20260510152003 55 104 1.7 6.1 0.00 0.00 0.00 29 1018.2
20260510151803 55 110 2.6 6.1 0.00 0.00 0.00 28 1018.3
20260510151603 55 99 1.7 5.2 0.00 0.00 0.00 29 1018.2
20260510151424 55 94 1.7 4.3 0.00 0.00 0.00 27 1018.2
20260510151203 55 84 1.7 5.2 0.00 0.00 0.00 27 1018.2
20260510151024 55 54 1.7 7.0 0.00 0.00 0.00 29 1018.1
20260510150803 55 51 1.7 7.0 0.00 0.00 0.00 31 1018.1
20260510150603 55 76 2.6 7.0 0.00 0.00 0.00 32 1018.1
20260510150424 55 60 2.6 7.0 0.00 0.00 0.00 30 1018.0
20260510150203 55 48 2.6 7.0 0.00 0.00 0.00 32 1018.1
20260510150003 55 75 2.6 5.2 0.00 0.00 0.00 29 1018.0
20260510145803 55 52 2.6 5.2 0.00 0.00 0.00 28 1017.9
20260510145603 54 25 1.7 4.3 0.00 0.00 0.00 31 1017.9
20260510145403 54 33 1.7 6.1 0.00 0.00 0.00 31 1017.9
20260510145203 54 33 1.7 6.1 0.00 0.00 0.00 32 1017.9
20260510145003 54 36 1.7 6.1 0.00 0.00 0.00 31 1017.8
20260510144803 54 106 1.7 6.1 0.00 0.00 0.00 32 1017.8
20260510144603 54 164 1.7 6.1 0.00 0.00 0.00 31 1017.8
20260510144424 54 164 1.7 5.2 0.00 0.00 0.00 29 1017.8
20260510144203 54 156 1.7 5.2 0.00 0.00 0.00 29 1017.7
20260510144003 54 151 1.7 5.2 0.00 0.00 0.00 27 1017.7
20260510143803 54 102 1.7 5.2 0.00 0.00 0.00 30 1017.7
20260510143603 54 65 1.7 5.2 0.00 0.00 0.00 30 1017.7
20260510143403 54 62 2.6 4.3 0.00 0.00 0.00 31 1017.6
20260510143203 54 54 2.6 6.1 0.00 0.00 0.00 30 1017.6
20260510143003 54 47 2.6 6.1 0.00 0.00 0.00 31 1017.7
20260510142803 53 50 2.6 6.1 0.00 0.00 0.00 30 1017.6
20260510142603 53 55 1.7 6.1 0.00 0.00 0.00 35 1017.7
20260510142404 53 39 1.7 6.1 0.00 0.00 0.00 34 1017.7
20260510142203 53 25 1.7 5.2 0.00 0.00 0.00 33 1017.7
20260510142003 53 10 1.7 3.5 0.00 0.00 0.00 33 1017.8
20260510141824 53 10 1.7 5.2 0.00 0.00 0.00 34 1017.7
20260510141603 52 346 0.9 5.2 0.00 0.00 0.00 32 1017.7
20260510141403 52 139 0.9 5.2 0.00 0.00 0.00 34 1017.7
20260510141203 52 161 0.9 5.2 0.00 0.00 0.00 34 1017.7
20260510141003 52 173 0.9 5.2 0.00 0.00 0.00 33 1017.7
20260510140803 52 185 0.9 3.5 0.00 0.00 0.00 33 1017.7
20260510140603 52 185 1.7 5.2 0.00 0.00 0.00 33 1017.7
20260510140403 51 185 1.7 5.2 0.00 0.00 0.00 33 1017.6
20260510140203 51 187 1.7 5.2 0.00 0.00 0.00 33 1017.6
20260510140004 51 187 0.9 5.2 0.00 0.00 0.00 34 1017.6
20260510135803 51 186 0.9 5.2 0.00 0.00 0.00 35 1017.7
20260510135603 51 186 0.9 3.5 0.00 0.00 0.00 35 1017.6
20260510135403 51 185 0.9 3.5 0.00 0.00 0.00 34 1017.6
20260510135203 51 178 0.9 4.3 0.00 0.00 0.00 36 1017.7
20260510135003 51 178 0.9 4.3 0.00 0.00 0.00 36 1017.6
20260510134803 51 171 0.9 4.3 0.00 0.00 0.00 39 1017.6
20260510134603 50 175 0.9 4.3 0.00 0.00 0.00 37 1017.6
20260510134424 50 178 1.7 4.3 0.00 0.00 0.00 37 1017.6
20260510134203 50 185 1.7 4.3 0.00 0.00 0.00 38 1017.6
20260510134003 50 182 1.7 4.3 0.00 0.00 0.00 37 1017.5
20260510133803 50 187 1.7 4.3 0.00 0.00 0.00 38 1017.5
20260510133603 50 187 1.7 4.3 0.00 0.00 0.00 37 1017.5
20260510133403 50 185 1.7 4.3 0.00 0.00 0.00 37 1017.5
20260510133203 50 178 1.7 4.3 0.00 0.00 0.00 37 1017.4
20260510133003 50 167 0.9 4.3 0.00 0.00 0.00 39 1017.3
20260510132803 50 164 0.9 4.3 0.00 0.00 0.00 37 1017.4
20260510132603 50 156 0.9 4.3 0.00 0.00 0.00 40 1017.3
20260510132403 50 154 0.9 4.3 0.00 0.00 0.00 42 1017.3
20260510132203 50 157 0.9 2.6 0.00 0.00 0.00 43 1017.3
20260510132003 50 178 0.0 2.6 0.00 0.00 0.00 44 1017.3
20260510131803 49 181 0.0 2.6 0.00 0.00 0.00 44 1017.3
20260510131603 49 182 0.0 2.6 0.00 0.00 0.00 44 1017.3
20260510131424 49 183 0.9 3.5 0.00 0.00 0.00 44 1017.4
20260510131203 49 182 0.9 3.5 0.00 0.00 0.00 45 1017.4
20260510131003 49 180 0.9 3.5 0.00 0.00 0.00 45 1017.3
20260510130803 49 180 0.9 3.5 0.00 0.00 0.00 45 1017.3
20260510130624 49 181 0.9 3.5 0.00 0.00 0.00 44 1017.3
20260510130403 48 181 0.9 3.5 0.00 0.00 0.00 45 1017.3
20260510130224 48 182 0.9 3.5 0.00 0.00 0.00 46 1017.3
20260510130003 48 183 0.9 3.5 0.00 0.00 0.00 47 1017.4
20260510125824 48 184 0.9 3.5 0.00 0.00 0.00 47 1017.4
20260510125603 48 183 1.7 5.2 0.00 0.00 0.00 46 1017.4
20260510125403 48 184 1.7 5.2 0.00 0.00 0.00 46 1017.4
20260510125203 48 185 1.7 5.2 0.00 0.00 0.00 46 1017.3
20260510125003 48 185 1.7 5.2 0.00 0.00 0.00 46 1017.3
20260510124803 48 184 1.7 5.2 0.00 0.00 0.00 46 1017.2
20260510124603 48 179 0.9 4.3 0.00 0.00 0.00 46 1017.2
20260510124403 48 177 0.9 4.3 0.00 0.00 0.00 47 1017.2
20260510124203 47 175 0.9 4.3 0.00 0.00 0.00 47 1017.2
20260510124003 47 175 0.9 4.3 0.00 0.00 0.00 47 1017.3
20260510123803 47 177 0.9 4.3 0.00 0.00 0.00 47 1017.2
20260510123603 47 183 0.9 4.3 0.00 0.00 0.00 47 1017.2
20260510123403 47 183 0.9 3.5 0.00 0.00 0.00 47 1017.2
20260510123203 47 183 0.9 3.5 0.00 0.00 0.00 48 1017.2
20260510123003 47 183 0.9 3.5 0.00 0.00 0.00 49 1017.2
20260510122803 47 184 0.9 3.5 0.00 0.00 0.00 48 1017.2
20260510122624 47 186 0.9 3.5 0.00 0.00 0.00 49 1017.1
20260510122403 46 188 0.9 3.5 0.00 0.00 0.00 50 1017.1
20260510122203 46 189 0.9 3.5 0.00 0.00 0.00 50 1017.0
20260510122003 46 189 0.9 3.5 0.00 0.00 0.00 50 1017.0
20260510121803 46 190 0.9 3.5 0.00 0.00 0.00 51 1016.9
20260510121603 46 191 0.0 3.5 0.00 0.00 0.00 51 1016.8
20260510121403 46 191 0.0 3.5 0.00 0.00 0.00 52 1016.8
20260510121203 46 191 0.0 2.6 0.00 0.00 0.00 52 1016.7
20260510121003 45 0 0.0 0.0 0.00 0.00 0.00 53 1016.8
20260510120803 45 0 0.0 0.0 0.00 0.00 0.00 53 1016.8
20260510120603 45 0 0.0 0.0 0.00 0.00 0.00 53 1016.7
20260510120403 45 179 0.0 1.7 0.00 0.00 0.00 54 1016.6
20260510120224 45 179 0.0 1.7 0.00 0.00 0.00 53 1016.6
20260510120024 44 179 0.0 1.7 0.00 0.00 0.00 52 1016.7
20260510115803 44 179 0.0 1.7 0.00 0.00 0.00 55 1016.6
20260510115603 44 179 0.0 1.7 0.00 0.00 0.00 55 1016.6
20260510115403 43 179 0.0 0.9 0.00 0.00 0.00 57 1016.6
20260510115203 43 0 0.0 0.0 0.00 0.00 0.00 59 1016.6
20260510115024 42 0 0.0 0.0 0.00 0.00 0.00 60 1016.6
20260510114824 42 0 0.0 0.0 0.00 0.00 0.00 60 1016.5
20260510114603 42 0 0.0 0.0 0.00 0.00 0.00 61 1016.5
20260510114403 41 179 0.0 0.9 0.00 0.00 0.00 61 1016.5
20260510114203 41 179 0.0 0.9 0.00 0.00 0.00 61 1016.5
20260510114003 41 179 0.0 0.9 0.00 0.00 0.00 62 1016.5
20260510113803 41 179 0.0 0.9 0.00 0.00 0.00 62 1016.4
20260510113603 40 179 0.0 0.9 0.00 0.00 0.00 62 1016.3
20260510113403 40 0 0.0 0.0 0.00 0.00 0.00 62 1016.3
20260510113203 40 0 0.0 0.0 0.00 0.00 0.00 63 1016.3
20260510113024 40 0 0.0 0.0 0.00 0.00 0.00 62 1016.2
20260510112803 40 0 0.0 0.0 0.00 0.00 0.00 63 1016.2
20260510112603 40 0 0.0 0.0 0.00 0.00 0.00 63 1016.1
20260510112403 39 0 0.0 0.0 0.00 0.00 0.00 62 1016.1
20260510112203 39 0 0.0 0.0 0.00 0.00 0.00 62 1016.0
20260510112003 39 0 0.0 0.0 0.00 0.00 0.00 63 1015.9
20260510111803 39 0 0.0 0.0 0.00 0.00 0.00 63 1015.9
20260510111624 39 0 0.0 0.0 0.00 0.00 0.00 62 1015.9
20260510111403 39 0 0.0 0.0 0.00 0.00 0.00 62 1015.9
20260510111203 39 0 0.0 0.0 0.00 0.00 0.00 62 1015.8
20260510111004 39 0 0.0 0.0 0.00 0.00 0.00 62 1015.9
20260510110803 39 0 0.0 0.0 0.00 0.00 0.00 62 1015.9
20260510110624 39 0 0.0 0.0 0.00 0.00 0.00 62 1015.9
20260510110403 39 0 0.0 0.0 0.00 0.00 0.00 62 1015.9
20260510110224 38 179 0.0 0.9 0.00 0.00 0.00 62 1015.8
20260510110004 38 179 0.0 0.9 0.00 0.00 0.00 62 1015.8
20260510105803 38 179 0.0 0.9 0.00 0.00 0.00 62 1015.8
20260510105603 39 179 0.0 0.9 0.00 0.00 0.00 62 1015.7
20260510105403 39 179 0.0 0.9 0.00 0.00 0.00 62 1015.6
20260510105203 39 179 0.0 0.9 0.00 0.00 0.00 62 1015.6
20260510105024 39 179 0.0 0.9 0.00 0.00 0.00 62 1015.6
20260510104803 39 179 0.0 0.9 0.00 0.00 0.00 62 1015.5
20260510104603 39 179 0.0 0.9 0.00 0.00 0.00 62 1015.5
20260510104403 39 179 0.0 0.9 0.00 0.00 0.00 61 1015.5
20260510104203 39 179 0.0 0.9 0.00 0.00 0.00 61 1015.4
20260510104024 39 179 0.0 0.9 0.00 0.00 0.00 61 1015.4
20260510103824 39 0 0.0 0.0 0.00 0.00 0.00 61 1015.3
20260510103603 39 0 0.0 0.0 0.00 0.00 0.00 60 1015.3
20260510103424 39 0 0.0 0.0 0.00 0.00 0.00 60 1015.2
20260510103203 39 0 0.0 0.0 0.00 0.00 0.00 60 1015.2
20260510103003 39 0 0.0 0.0 0.00 0.00 0.00 60 1015.2
20260510102803 39 179 0.0 0.9 0.00 0.00 0.00 60 1015.2
20260510102603 39 179 0.0 0.9 0.00 0.00 0.00 60 1015.1
20260510102403 39 179 0.0 0.9 0.00 0.00 0.00 60 1015.1
20260510102203 39 179 0.0 0.9 0.00 0.00 0.00 60 1015.0
20260510102003 39 179 0.0 0.9 0.00 0.00 0.00 60 1015.0
20260510101803 39 179 0.0 0.9 0.00 0.00 0.00 60 1015.0
20260510101603 39 179 0.0 0.9 0.00 0.00 0.00 60 1015.0
20260510101403 39 179 0.0 0.9 0.00 0.00 0.00 60 1015.0
20260510101203 39 0 0.0 0.0 0.00 0.00 0.00 60 1015.0
20260510101024 39 0 0.0 0.0 0.00 0.00 0.00 60 1015.0
20260510100803 39 0 0.0 0.0 0.00 0.00 0.00 60 1014.9
20260510100624 39 0 0.0 0.0 0.00 0.00 0.00 60 1014.9
20260510100424 39 0 0.0 0.0 0.00 0.00 0.00 60 1014.9
20260510100203 39 0 0.0 0.0 0.00 0.00 0.00 60 1014.9
20260510100024 39 0 0.0 0.0 0.00 0.00 0.00 60 1014.9
20260510095803 39 0 0.0 0.0 0.00 0.00 0.00 60 1014.9
20260510095603 39 0 0.0 0.0 0.00 0.00 0.00 60 1014.8
20260510095424 40 0 0.0 0.0 0.00 0.00 0.00 59 1014.8
20260510095203 40 179 0.0 0.9 0.00 0.00 0.00 59 1014.8
20260510095003 40 179 0.0 0.9 0.00 0.00 0.00 59 1014.8
20260510094803 40 179 0.0 0.9 0.00 0.00 0.00 59 1014.7
20260510094603 40 179 0.0 0.9 0.00 0.00 0.00 58 1014.6
20260510094403 40 179 0.0 0.9 0.00 0.00 0.00 58 1014.6
20260510094224 40 179 0.0 0.9 0.00 0.00 0.00 58 1014.6
20260510094003 40 0 0.0 0.0 0.00 0.00 0.00 57 1014.6
20260510093803 41 0 0.0 0.0 0.00 0.00 0.00 57 1014.6
20260510093624 41 0 0.0 0.0 0.00 0.00 0.00 57 1014.6
20260510093403 41 0 0.0 0.0 0.00 0.00 0.00 56 1014.6
20260510093203 41 0 0.0 0.0 0.00 0.00 0.00 56 1014.6
20260510093024 42 0 0.0 0.0 0.00 0.00 0.00 56 1014.6
20260510092803 42 0 0.0 0.0 0.00 0.00 0.00 55 1014.6
20260510092603 42 179 0.0 0.9 0.00 0.00 0.00 55 1014.6
20260510092403 42 179 0.0 0.9 0.00 0.00 0.00 54 1014.6
20260510092203 43 179 0.0 0.9 0.00 0.00 0.00 53 1014.6
20260510092003 43 179 0.0 0.9 0.00 0.00 0.00 53 1014.5
20260510091824 43 179 0.0 0.9 0.00 0.00 0.00 52 1014.5
20260510091603 43 179 0.0 1.7 0.00 0.00 0.00 50 1014.6
20260510091424 43 179 0.0 1.7 0.00 0.00 0.00 50 1014.6
20260510091203 44 179 0.0 1.7 0.00 0.00 0.00 49 1014.5
20260510091003 44 179 0.0 1.7 0.00 0.00 0.00 49 1014.5
20260510090803 44 179 0.0 1.7 0.00 0.00 0.00 49 1014.5
20260510090603 44 179 0.0 1.7 0.00 0.00 0.00 49 1014.5
20260510090403 44 179 0.0 1.7 0.00 0.00 0.00 48 1014.4
20260510090224 44 179 0.0 1.7 0.00 0.00 0.00 48 1014.4
20260510090024 44 179 0.0 1.7 0.00 0.00 0.00 48 1014.4
20260510085803 44 179 0.0 1.7 0.00 0.00 0.00 48 1014.4
20260510085624 44 180 0.9 1.7 0.00 0.00 0.00 48 1014.4
20260510085403 44 183 0.9 2.6 0.00 0.00 0.00 48 1014.4
20260510085203 44 183 0.9 2.6 0.00 0.00 0.00 47 1014.4
20260510085003 44 181 0.9 2.6 0.00 0.00 0.00 47 1014.3
20260510084803 44 178 1.7 5.2 0.00 0.00 0.00 47 1014.3
20260510084603 44 176 1.7 5.2 0.00 0.00 0.00 47 1014.3
20260510084424 45 173 1.7 5.2 0.00 0.00 0.00 47 1014.2
20260510084203 45 171 1.7 5.2 0.00 0.00 0.00 47 1014.2
20260510084003 45 175 1.7 5.2 0.00 0.00 0.00 46 1014.2
20260510083803 45 177 1.7 4.3 0.00 0.00 0.00 46 1014.2
20260510083603 45 180 1.7 5.2 0.00 0.00 0.00 46 1014.1
20260510083403 45 182 1.7 5.2 0.00 0.00 0.00 46 1014.1
20260510083203 45 182 1.7 5.2 0.00 0.00 0.00 46 1014.1
20260510083003 45 181 1.7 5.2 0.00 0.00 0.00 46 1014.0
20260510082803 45 182 1.7 5.2 0.00 0.00 0.00 46 1014.0
20260510082603 45 174 1.7 4.3 0.00 0.00 0.00 46 1014.0
20260510082403 45 172 1.7 4.3 0.00 0.00 0.00 46 1013.9
20260510082203 45 168 1.7 5.2 0.00 0.00 0.00 46 1013.8
20260510082024 46 172 2.6 5.2 0.00 0.00 0.00 46 1013.8
20260510081803 46 175 2.6 6.1 0.00 0.00 0.00 46 1013.7
20260510081603 46 180 2.6 6.1 0.00 0.00 0.00 46 1013.7
20260510081403 46 179 2.6 6.1 0.00 0.00 0.00 45 1013.6
20260510081203 46 182 2.6 7.8 0.00 0.00 0.00 45 1013.5
20260510081003 46 178 2.6 7.8 0.00 0.00 0.00 45 1013.5
20260510080824 46 174 2.6 7.8 0.00 0.00 0.00 45 1013.5
20260510080603 46 171 2.6 7.8 0.00 0.00 0.00 46 1013.5
20260510080403 46 174 2.6 7.8 0.00 0.00 0.00 46 1013.4
20260510080203 46 173 2.6 7.0 0.00 0.00 0.00 46 1013.4
20260510080003 46 176 2.6 7.0 0.00 0.00 0.00 45 1013.3
20260510075824 46 176 2.6 6.1 0.00 0.00 0.00 45 1013.3
20260510075624 46 176 2.6 6.1 0.00 0.00 0.00 46 1013.2
20260510075424 46 178 2.6 6.1 0.00 0.00 0.00 45 1013.3
20260510075203 46 178 2.6 6.1 0.00 0.00 0.00 45 1013.3
20260510075003 46 182 2.6 6.1 0.00 0.00 0.00 46 1013.2
20260510074824 46 183 2.6 7.0 0.00 0.00 0.00 46 1013.2
20260510074603 46 181 3.5 7.8 0.00 0.00 0.00 45 1013.2
20260510074403 47 175 3.5 7.8 0.00 0.00 0.00 46 1013.1
20260510074224 47 175 3.5 7.8 0.00 0.00 0.00 45 1013.1
20260510074003 47 174 3.5 7.8 0.00 0.00 0.00 45 1013.1
20260510073803 47 171 3.5 7.8 0.00 0.00 0.00 45 1013.1
20260510073603 47 173 4.3 10.4 0.00 0.00 0.00 46 1013.1
20260510073403 47 175 4.3 10.4 0.00 0.00 0.00 46 1013.0
20260510073224 47 175 3.5 10.4 0.00 0.00 0.00 46 1013.0
20260510073003 47 172 3.5 10.4 0.00 0.00 0.00 47 1013.0
20260510072803 47 172 3.5 10.4 0.00 0.00 0.00 46 1013.1
20260510072626 47 170 3.5 9.6 0.00 0.00 0.00 47 1013.0
20260510072404 48 173 3.5 9.6 0.00 0.00 0.00 49 1012.9
20260510072204 47 175 3.5 9.6 0.00 0.00 0.00 49 1012.9
20260510072004 47 173 3.5 9.6 0.00 0.00 0.00 49 1012.9
20260510071803 47 173 3.5 9.6 0.00 0.00 0.00 48 1012.8
20260510071603 48 173 2.6 8.7 0.00 0.00 0.00 49 1012.8
20260510071403 48 174 2.6 8.7 0.00 0.00 0.00 51 1012.7
20260510071203 48 171 2.6 8.7 0.00 0.00 0.00 52 1012.6
20260510071003 48 173 2.6 8.7 0.00 0.00 0.00 53 1012.6
20260510070803 48 169 2.6 8.7 0.00 0.00 0.00 54 1012.5
20260510070603 48 161 2.6 7.8 0.00 0.00 0.00 54 1012.4
20260510070403 48 135 2.6 6.1 0.00 0.00 0.00 55 1012.4
20260510070203 48 116 2.6 6.1 0.00 0.00 0.00 55 1012.4
20260510070024 48 101 2.6 6.1 0.00 0.00 0.00 55 1012.3
20260510065803 47 96 2.6 6.1 0.00 0.00 0.00 56 1012.3
20260510065603 47 92 2.6 6.1 0.00 0.00 0.00 57 1012.2
20260510065403 46 91 1.7 6.1 0.00 0.00 0.00 58 1012.2
20260510065224 46 91 1.7 6.1 0.00 0.00 0.00 59 1012.1
20260510065003 46 94 0.9 6.1 0.00 0.00 0.00 61 1012.1
20260510064824 46 91 0.0 4.3 0.00 0.00 0.00 62 1012.0
20260510064624 46 41 0.0 1.7 0.00 0.00 0.00 62 1011.9
20260510064403 46 41 0.0 1.7 0.00 0.00 0.00 63 1011.9
20260510064203 46 0 0.0 0.0 0.00 0.00 0.00 62 1011.7
20260510064003 46 0 0.0 0.0 0.00 0.00 0.00 62 1011.7
20260510063803 46 0 0.0 0.0 0.00 0.00 0.00 62 1011.7
20260510063604 46 0 0.0 0.0 0.00 0.00 0.00 61 1011.7
20260510063424 46 0 0.0 0.0 0.00 0.00 0.00 62 1011.6
20260510063203 46 0 0.0 0.0 0.00 0.00 0.00 62 1011.6
20260510063025 46 0 0.0 0.0 0.00 0.00 0.00 63 1011.5
20260510062803 46 0 0.0 0.0 0.00 0.00 0.00 62 1011.5
20260510062603 46 0 0.0 0.0 0.00 0.00 0.00 63 1011.5
20260510062424 45 0 0.0 0.0 0.00 0.00 0.00 63 1011.5
20260510062224 45 0 0.0 0.0 0.00 0.00 0.00 62 1011.5
20260510062024 45 0 0.0 0.0 0.00 0.00 0.00 62 1011.5
20260510061803 46 0 0.0 0.0 0.00 0.00 0.00 62 1011.4
20260510061624 46 0 0.0 0.0 0.00 0.00 0.00 63 1011.4
20260510061424 45 0 0.0 0.0 0.00 0.00 0.00 63 1011.4
20260510061203 45 0 0.0 0.0 0.00 0.00 0.00 61 1011.3
20260510061003 46 0 0.0 0.0 0.00 0.00 0.00 62 1011.3
20260510060824 46 0 0.0 0.0 0.00 0.00 0.00 62 1011.3
20260510060603 46 0 0.0 0.0 0.00 0.00 0.00 62 1011.3
20260510060424 46 0 0.0 0.0 0.00 0.00 0.00 61 1011.3
20260510060203 46 0 0.0 0.0 0.00 0.00 0.00 60 1011.3
20260510060024 46 0 0.0 0.0 0.00 0.00 0.00 59 1011.2
20260510055803 46 0 0.0 0.0 0.00 0.00 0.00 59 1011.2
20260510055603 46 0 0.0 0.0 0.00 0.00 0.00 59 1011.2
20260510055403 47 0 0.0 0.0 0.00 0.00 0.00 60 1011.2
20260510055203 47 0 0.0 0.0 0.00 0.00 0.00 61 1011.2
20260510055003 47 0 0.0 0.0 0.00 0.00 0.00 60 1011.1
20260510054803 47 0 0.0 0.0 0.00 0.00 0.00 59 1011.1
20260510054603 47 0 0.0 0.0 0.00 0.00 0.00 59 1011.0
20260510054403 47 0 0.0 0.0 0.00 0.00 0.00 59 1011.0
20260510054224 48 0 0.0 0.0 0.00 0.00 0.00 60 1011.0
20260510054003 48 0 0.0 0.0 0.00 0.00 0.00 59 1011.0
20260510053824 48 0 0.0 0.0 0.00 0.00 0.00 59 1011.0
20260510053603 48 0 0.0 0.0 0.00 0.00 0.00 58 1011.0
20260510053403 48 0 0.0 0.0 0.00 0.00 0.00 58 1011.0
20260510053203 48 0 0.0 0.0 0.00 0.00 0.00 58 1010.9
20260510053003 49 0 0.0 0.0 0.00 0.00 0.00 58 1010.9
20260510052824 48 0 0.0 0.0 0.00 0.00 0.00 59 1010.9
20260510052603 49 0 0.0 0.0 0.00 0.00 0.00 57 1010.9
20260510052403 49 0 0.0 0.0 0.00 0.00 0.00 58 1010.8
20260510052224 49 0 0.0 0.0 0.00 0.00 0.00 57 1010.8
20260510052003 49 0 0.0 0.0 0.00 0.00 0.00 57 1010.8
20260510051803 49 0 0.0 0.0 0.00 0.00 0.00 57 1010.7
20260510051603 49 0 0.0 0.0 0.00 0.00 0.00 57 1010.7
20260510051424 49 0 0.0 0.0 0.00 0.00 0.00 56 1010.7
20260510051203 49 0 0.0 0.0 0.00 0.00 0.00 57 1010.7
20260510051003 49 0 0.0 0.0 0.00 0.00 0.00 57 1010.6
20260510050803 49 0 0.0 0.0 0.00 0.00 0.00 57 1010.6
20260510050604 49 0 0.0 0.0 0.00 0.00 0.00 57 1010.6
20260510050403 49 0 0.0 0.0 0.00 0.00 0.00 57 1010.6
20260510050225 49 0 0.0 0.0 0.00 0.00 0.00 57 1010.6
20260510050004 49 0 0.0 0.0 0.00 0.00 0.00 56 1010.5
20260510045804 49 0 0.0 0.0 0.00 0.00 0.00 57 1010.6
20260510045604 49 0 0.0 0.0 0.00 0.00 0.00 57 1010.5
20260510045424 49 0 0.0 0.0 0.00 0.00 0.00 57 1010.5
20260510045203 50 0 0.0 0.0 0.00 0.00 0.00 57 1010.5
20260510045024 50 0 0.0 0.0 0.00 0.00 0.00 57 1010.5
20260510044824 50 0 0.0 0.0 0.00 0.00 0.00 56 1010.4
20260510044604 50 0 0.0 0.0 0.00 0.00 0.00 57 1010.3
20260510044403 50 0 0.0 0.0 0.00 0.00 0.00 57 1010.3
20260510044224 50 0 0.0 0.0 0.00 0.00 0.00 58 1010.4
20260510044003 49 0 0.0 0.0 0.00 0.00 0.00 58 1010.3
20260510043803 49 0 0.0 0.0 0.00 0.00 0.00 59 1010.3
20260510043603 49 0 0.0 0.0 0.00 0.00 0.00 57 1010.3
20260510043403 49 0 0.0 0.0 0.00 0.00 0.00 57 1010.3
20260510043203 49 0 0.0 0.0 0.00 0.00 0.00 57 1010.3
20260510043003 49 0 0.0 0.0 0.00 0.00 0.00 56 1010.2
20260510042803 49 0 0.0 0.0 0.00 0.00 0.00 57 1010.2
20260510042624 49 0 0.0 0.0 0.00 0.00 0.00 58 1010.2
20260510042403 49 0 0.0 0.0 0.00 0.00 0.00 57 1010.1
20260510042203 49 0 0.0 0.0 0.00 0.00 0.00 57 1010.1
20260510042003 49 0 0.0 0.0 0.00 0.00 0.00 58 1010.1
20260510041824 49 0 0.0 0.0 0.00 0.00 0.00 59 1010.1
20260510041603 49 0 0.0 0.0 0.00 0.00 0.00 59 1010.1
20260510041403 48 0 0.0 0.0 0.00 0.00 0.00 59 1010.1
20260510041224 48 0 0.0 0.0 0.00 0.00 0.00 60 1010.0
20260510041003 48 0 0.0 0.0 0.00 0.00 0.00 60 1010.0
20260510040803 48 0 0.0 0.0 0.00 0.00 0.00 61 1010.0
20260510040624 48 0 0.0 0.0 0.00 0.00 0.00 61 1010.0
20260510040403 47 0 0.0 0.0 0.00 0.00 0.00 60 1010.0
20260510040203 47 0 0.0 0.0 0.00 0.00 0.00 60 1010.0
20260510040005 47 0 0.0 0.0 0.00 0.00 0.00 59 1009.9
20260510035803 48 0 0.0 0.0 0.00 0.00 0.00 59 1009.9
20260510035603 48 0 0.0 0.0 0.00 0.00 0.00 59 1009.9
20260510035403 48 0 0.0 0.0 0.00 0.00 0.00 58 1009.9
20260510035203 48 0 0.0 0.0 0.00 0.00 0.00 58 1009.8
20260510035003 48 0 0.0 0.0 0.00 0.00 0.00 58 1009.8
20260510034803 48 0 0.0 0.0 0.00 0.00 0.00 57 1009.8
20260510034603 48 0 0.0 0.0 0.00 0.00 0.00 57 1009.7
20260510034403 49 0 0.0 0.0 0.00 0.00 0.00 57 1009.7
20260510034203 49 0 0.0 0.0 0.00 0.00 0.00 56 1009.7
20260510034003 49 0 0.0 0.0 0.00 0.00 0.00 56 1009.7
20260510033803 49 0 0.0 0.0 0.00 0.00 0.00 56 1009.7
20260510033624 49 0 0.0 0.0 0.00 0.00 0.00 56 1009.7
20260510033424 49 0 0.0 0.0 0.00 0.00 0.00 56 1009.7
20260510033224 49 0 0.0 0.0 0.00 0.00 0.00 55 1009.6
20260510033003 49 0 0.0 0.0 0.00 0.00 0.00 55 1009.6
20260510032803 49 0 0.0 0.0 0.00 0.00 0.00 55 1009.5
20260510032624 49 0 0.0 0.0 0.00 0.00 0.00 55 1009.6
20260510032403 49 0 0.0 0.0 0.00 0.00 0.00 54 1009.6
20260510032224 49 0 0.0 0.0 0.00 0.00 0.00 54 1009.6
20260510032003 49 0 0.0 0.0 0.00 0.00 0.00 55 1009.6
20260510031803 50 0 0.0 0.0 0.00 0.00 0.00 55 1009.5
20260510031603 50 0 0.0 0.0 0.00 0.00 0.00 54 1009.5
20260510031403 50 0 0.0 0.0 0.00 0.00 0.00 54 1009.5
20260510031203 50 0 0.0 0.0 0.00 0.00 0.00 54 1009.4
20260510031024 51 0 0.0 0.0 0.00 0.00 0.00 53 1009.4
20260510030803 51 65 0.0 0.9 0.00 0.00 0.00 53 1009.3
20260510030603 51 64 0.0 0.9 0.00 0.00 0.00 52 1009.3
20260510030403 51 65 0.0 0.9 0.00 0.00 0.00 51 1009.2
20260510030203 51 65 0.0 1.7 0.00 0.00 0.00 51 1009.2
20260510030024 52 64 0.9 1.7 0.00 0.00 0.00 51 1009.2
20260510025825 52 64 0.9 1.7 0.00 0.00 0.00 51 1009.1
20260510025603 52 65 0.9 2.6 0.00 0.00 0.00 50 1009.2
20260510025403 52 67 0.9 2.6 0.00 0.00 0.00 50 1009.1
20260510025224 52 67 0.9 2.6 0.00 0.00 0.00 50 1009.1
20260510025003 52 67 0.9 2.6 0.00 0.00 0.00 49 1009.1
20260510024803 52 67 0.9 2.6 0.00 0.00 0.00 49 1009.1
20260510024624 52 68 0.0 2.6 0.00 0.00 0.00 49 1009.1
20260510024403 52 60 0.0 2.6 0.00 0.00 0.00 49 1009.0
20260510024203 53 54 0.0 2.6 0.00 0.00 0.00 49 1009.0
20260510024024 53 51 0.0 1.7 0.00 0.00 0.00 49 1009.0
20260510023803 53 50 0.9 1.7 0.00 0.00 0.00 48 1009.0
20260510023603 54 50 0.9 1.7 0.00 0.00 0.00 47 1008.9
20260510023403 54 55 0.9 2.6 0.00 0.00 0.00 46 1008.8
20260510023203 54 66 0.9 4.3 0.00 0.00 0.00 46 1008.8
20260510023003 55 71 0.9 4.3 0.00 0.00 0.00 45 1008.8
20260510022803 55 83 1.7 4.3 0.00 0.00 0.00 44 1008.8
20260510022603 55 88 1.7 4.3 0.00 0.00 0.00 44 1008.7
20260510022403 55 89 1.7 4.3 0.00 0.00 0.00 42 1008.6
20260510022203 56 88 1.7 4.3 0.00 0.00 0.00 44 1008.6
20260510022003 56 90 1.7 4.3 0.00 0.00 0.00 41 1008.5
20260510021824 56 91 1.7 4.3 0.00 0.00 0.00 41 1008.5
20260510021603 56 93 1.7 4.3 0.00 0.00 0.00 43 1008.4
20260510021403 56 95 1.7 4.3 0.00 0.00 0.00 42 1008.4
20260510021203 56 99 1.7 6.1 0.00 0.00 0.00 42 1008.4
20260510021003 56 97 1.7 6.1 0.00 0.00 0.00 42 1008.3
20260510020803 56 97 1.7 6.1 0.00 0.00 0.00 41 1008.2
20260510020603 56 96 2.6 6.1 0.00 0.00 0.00 41 1008.2
20260510020403 56 97 2.6 6.1 0.00 0.00 0.00 40 1008.2
20260510020203 56 96 2.6 4.3 0.00 0.00 0.00 40 1008.1
20260510020004 56 95 2.6 4.3 0.00 0.00 0.00 40 1008.1
20260510015803 56 94 1.7 4.3 0.00 0.00 0.00 40 1007.9
20260510015604 56 92 1.7 4.3 0.00 0.00 0.00 39 1008.0
20260510015403 57 90 1.7 3.5 0.00 0.00 0.00 40 1007.9
20260510015203 57 90 1.7 3.5 0.00 0.00 0.00 40 1007.9
20260510015003 57 91 1.7 4.3 0.00 0.00 0.00 40 1007.9
20260510014803 57 91 2.6 5.2 0.00 0.00 0.00 38 1007.9
20260510014603 58 94 2.6 5.2 0.00 0.00 0.00 40 1007.8
20260510014403 58 95 2.6 5.2 0.00 0.00 0.00 38 1007.8
20260510014203 58 98 2.6 5.2 0.00 0.00 0.00 37 1007.7
20260510014003 58 99 2.6 5.2 0.00 0.00 0.00 37 1007.7
20260510013803 58 98 2.6 5.2 0.00 0.00 0.00 37 1007.6
20260510013603 58 96 2.6 5.2 0.00 0.00 0.00 36 1007.6
20260510013403 58 95 2.6 6.1 0.00 0.00 0.00 36 1007.5
20260510013203 58 93 3.5 7.0 0.00 0.00 0.00 36 1007.5
20260510013003 59 93 3.5 9.6 0.00 0.00 0.00 36 1007.5
20260510012803 59 95 3.5 9.6 0.00 0.00 0.00 36 1007.5
20260510012603 59 96 3.5 9.6 0.00 0.00 0.00 35 1007.4
20260510012424 59 96 3.5 9.6 0.00 0.00 0.00 36 1007.4
20260510012203 59 96 3.5 9.6 0.00 0.00 0.00 35 1007.4
20260510012003 59 97 3.5 11.3 0.00 0.00 0.00 35 1007.3
20260510011803 59 95 3.5 11.3 0.00 0.00 0.00 35 1007.3
20260510011604 59 92 4.3 11.3 0.00 0.00 0.00 35 1007.2
20260510011403 59 96 4.3 11.3 0.00 0.00 0.00 35 1007.1
20260510011203 60 95 5.2 11.3 0.00 0.00 0.00 35 1007.1
20260510011003 60 95 6.1 10.4 0.00 0.00 0.00 36 1007.0
20260510010824 60 97 6.1 13.0 0.00 0.00 0.00 35 1007.0
20260510010603 60 97 6.1 13.0 0.00 0.00 0.00 35 1007.0
20260510010403 60 94 6.1 13.0 0.00 0.00 0.00 35 1006.9
20260510010224 60 94 5.2 13.0 0.00 0.00 0.00 35 1006.9
20260510010003 60 93 5.2 13.0 0.00 0.00 0.00 35 1006.8
20260510005803 61 93 5.2 9.6 0.00 0.00 0.00 36 1006.8
20260510005603 61 93 5.2 9.6 0.00 0.00 0.00 36 1006.7
20260510005403 61 95 6.1 13.0 0.00 0.00 0.00 36 1006.6
20260510005203 61 93 6.1 13.0 0.00 0.00 0.00 35 1006.6
20260510005003 61 95 6.1 13.0 0.00 0.00 0.00 35 1006.5
20260510004803 62 93 6.1 13.0 0.00 0.00 0.00 35 1006.4
20260510004603 62 89 6.1 13.0 0.00 0.00 0.00 35 1006.3
20260510004403 62 89 6.1 11.3 0.00 0.00 0.00 35 1006.3
20260510004224 62 91 7.0 13.9 0.00 0.00 0.00 35 1006.2
20260510004003 62 92 7.0 13.9 0.00 0.00 0.00 35 1006.1
20260510003803 63 92 7.8 13.9 0.00 0.00 0.00 35 1006.0
20260510003603 63 91 7.0 14.8 0.00 0.00 0.00 34 1006.0
20260510003403 63 88 7.0 14.8 0.00 0.00 0.00 34 1005.9
20260510003203 64 84 7.0 14.8 0.00 0.00 0.00 33 1005.8
20260510003004 64 81 7.8 14.8 0.00 0.00 0.00 33 1005.7
20260510002803 64 78 7.0 14.8 0.00 0.00 0.00 33 1005.7
20260510002603 64 73 7.8 13.9 0.00 0.00 0.00 33 1005.6
20260510002424 65 68 7.8 13.9 0.00 0.00 0.00 32 1005.5
20260510002203 65 60 7.8 13.9 0.00 0.00 0.00 31 1005.4
20260510002003 65 51 7.0 13.9 0.00 0.00 0.00 31 1005.3
20260510001803 65 49 6.1 13.9 0.00 0.00 0.00 31 1005.2
20260510001603 65 46 6.1 12.2 0.00 0.00 0.00 32 1005.2
20260510001403 66 38 5.2 10.4 0.00 0.00 0.00 31 1005.1
20260510001203 66 38 5.2 10.4 0.00 0.00 0.00 32 1004.9
20260510001003 66 37 6.1 10.4 0.00 0.00 0.00 31 1004.9
20260510000803 66 32 6.1 13.0 0.00 0.00 0.00 30 1004.9
20260510000603 66 35 6.1 13.0 0.00 0.00 0.00 30 1004.9
20260510000403 66 39 7.0 13.0 0.00 0.00 0.00 30 1004.7
20260510000204 66 42 6.1 13.0 0.00 0.00 0.00 29 1004.7
20260510000003 67 46 6.1 13.0 0.00 0.00 0.00 29 1004.7
20260509235803 67 50 6.1 13.0 0.00 0.00 0.00 29 1004.6
20260509235603 67 49 6.1 13.0 0.00 0.00 0.00 30 1004.6
20260509235403 67 47 5.2 13.0 0.00 0.00 0.00 30 1004.5
20260509235203 67 44 6.1 11.3 0.00 0.00 0.00 29 1004.5
20260509235003 67 47 6.1 11.3 0.00 0.00 0.00 28 1004.4
20260509234824 67 43 5.2 11.3 0.00 0.00 0.00 29 1004.4
20260509234603 67 29 6.1 11.3 0.00 0.00 0.00 30 1004.3
20260509234403 67 19 7.0 11.3 0.00 0.00 0.00 29 1004.3
20260509234203 67 14 6.1 11.3 0.00 0.00 0.00 31 1004.2
20260509234003 68 6 7.0 11.3 0.00 0.00 0.00 31 1004.2
20260509233803 68 2 7.0 12.2 0.00 0.00 0.00 29 1004.2
20260509233603 68 6 6.1 12.2 0.00 0.00 0.00 29 1004.1
20260509233403 68 10 5.2 12.2 0.00 0.00 0.00 31 1004.0
20260509233203 68 12 5.2 12.2 0.00 0.00 0.00 32 1004.0
20260509233003 68 8 5.2 12.2 0.00 0.00 0.00 32 1003.9
20260509232803 68 4 5.2 13.9 0.00 0.00 0.00 32 1003.8
20260509232603 68 359 6.1 13.9 0.00 0.00 0.00 33 1003.9
20260509232403 68 360 6.1 13.9 0.00 0.00 0.00 32 1003.9
20260509232203 68 357 6.1 13.9 0.00 0.00 0.00 30 1003.9
20260509232003 68 354 5.2 13.9 0.00 0.00 0.00 29 1003.9
20260509231803 68 358 5.2 13.0 0.00 0.00 0.00 30 1003.9
20260509231603 68 4 4.3 13.0 0.00 0.00 0.00 32 1003.8
20260509231424 68 360 4.3 12.2 0.00 0.00 0.00 31 1003.9
20260509231203 68 4 4.3 12.2 0.00 0.00 0.00 32 1003.9
20260509231003 68 9 5.2 12.2 0.00 0.00 0.00 33 1003.8
20260509230803 68 9 6.1 10.4 0.00 0.00 0.00 32 1003.8
20260509230603 69 6 7.0 17.4 0.00 0.00 0.00 31 1003.8
20260509230403 69 5 7.0 17.4 0.00 0.00 0.00 31 1003.8
20260509230224 69 3 7.0 17.4 0.00 0.00 0.00 33 1003.8
20260509230003 69 1 7.0 17.4 0.00 0.00 0.00 30 1003.8
20260509225824 69 359 7.0 17.4 0.00 0.00 0.00 29 1003.8
20260509225624 69 356 7.0 15.6 0.00 0.00 0.00 28 1003.8
20260509225403 70 359 7.0 15.6 0.00 0.00 0.00 28 1003.8
20260509225203 70 358 7.0 15.6 0.00 0.00 0.00 29 1003.8
20260509225003 70 360 7.0 15.6 0.00 0.00 0.00 28 1003.7
20260509224803 70 1 7.0 14.8 0.00 0.00 0.00 29 1003.7
20260509224603 70 360 7.0 13.9 0.00 0.00 0.00 31 1003.7
20260509224403 69 355 7.0 13.9 0.00 0.00 0.00 29 1003.7
20260509224203 69 352 7.0 13.9 0.00 0.00 0.00 29 1003.7
20260509224004 69 346 7.0 13.9 0.00 0.00 0.00 30 1003.8
20260509223803 69 342 7.0 13.9 0.00 0.00 0.00 30 1003.7
20260509223624 69 336 7.8 13.9 0.00 0.00 0.00 30 1003.8
20260509223403 69 336 7.8 13.9 0.00 0.00 0.00 30 1003.8
20260509223203 69 338 7.0 13.9 0.00 0.00 0.00 29 1003.8
20260509223003 69 339 6.1 13.9 0.00 0.00 0.00 30 1003.8
20260509222803 69 344 6.1 14.8 0.00 0.00 0.00 29 1003.8
20260509222624 68 352 5.2 14.8 0.00 0.00 0.00 31 1003.8
20260509222403 68 358 4.3 14.8 0.00 0.00 0.00 36 1003.8
20260509222203 68 359 4.3 14.8 0.00 0.00 0.00 35 1003.7
20260509222004 68 360 4.3 14.8 0.00 0.00 0.00 36 1003.7
20260509221803 68 1 5.2 9.6 0.00 0.00 0.00 39 1003.8
20260509221603 68 359 5.2 9.6 0.00 0.00 0.00 37 1003.7
20260509221403 68 1 5.2 11.3 0.00 0.00 0.00 37 1003.7
20260509221203 68 3 6.1 13.0 0.00 0.00 0.00 35 1003.7
20260509221024 68 5 7.0 13.9 0.00 0.00 0.00 36 1003.8
20260509220803 68 6 7.0 13.9 0.00 0.00 0.00 35 1003.7
20260509220603 67 8 7.8 13.9 0.00 0.00 0.00 35 1003.7
20260509220403 68 10 7.8 13.9 0.00 0.00 0.00 37 1003.7
20260509220203 68 9 7.0 13.9 0.00 0.00 0.00 36 1003.8
20260509220024 68 6 7.0 13.0 0.00 0.00 0.00 35 1003.8
20260509215803 68 6 6.1 13.9 0.00 0.00 0.00 34 1003.8
20260509215624 68 4 5.2 13.9 0.00 0.00 0.00 36 1003.7
20260509215403 68 355 4.3 13.9 0.00 0.00 0.00 34 1003.8
20260509215203 69 353 4.3 13.9 0.00 0.00 0.00 35 1003.7
20260509215003 69 348 4.3 11.3 0.00 0.00 0.00 33 1003.6
20260509214803 69 338 4.3 11.3 0.00 0.00 0.00 33 1003.8
20260509214603 69 332 4.3 9.6 0.00 0.00 0.00 32 1003.7
20260509214403 70 328 4.3 9.6 0.00 0.00 0.00 31 1003.7
20260509214203 70 327 4.3 9.6 0.00 0.00 0.00 31 1003.6
20260509214024 70 331 4.3 10.4 0.00 0.00 0.00 30 1003.7
20260509213803 70 337 4.3 10.4 0.00 0.00 0.00 33 1003.7
20260509213624 70 334 4.3 10.4 0.00 0.00 0.00 33 1003.7
20260509213403 69 335 5.2 10.4 0.00 0.00 0.00 33 1003.7
20260509213203 69 327 5.2 10.4 0.00 0.00 0.00 33 1003.8
20260509213024 69 319 6.1 10.4 0.00 0.00 0.00 32 1003.7
20260509212803 69 316 6.1 11.3 0.00 0.00 0.00 34 1003.7
20260509212603 69 316 6.1 11.3 0.00 0.00 0.00 31 1003.8
20260509212403 69 313 6.1 12.2 0.00 0.00 0.00 32 1003.8
20260509212203 69 315 5.2 12.2 0.00 0.00 0.00 31 1003.8
20260509212003 69 318 5.2 12.2 0.00 0.00 0.00 33 1003.9
20260509211803 70 315 5.2 12.2 0.00 0.00 0.00 31 1003.9
20260509211603 69 321 5.2 12.2 0.00 0.00 0.00 32 1003.9
20260509211403 69 330 4.3 10.4 0.00 0.00 0.00 33 1003.9
20260509211203 69 338 5.2 10.4 0.00 0.00 0.00 33 1003.8
20260509211003 68 342 5.2 12.2 0.00 0.00 0.00 34 1003.8
20260509210803 68 343 5.2 12.2 0.00 0.00 0.00 33 1003.9
20260509210603 68 333 5.2 12.2 0.00 0.00 0.00 33 1003.9
20260509210403 68 331 6.1 12.2 0.00 0.00 0.00 34 1003.9
20260509210203 69 326 5.2 12.2 0.00 0.00 0.00 34 1003.9
20260509210003 69 323 5.2 12.2 0.00 0.00 0.00 32 1003.9
20260509205803 68 326 4.3 12.2 0.00 0.00 0.00 34 1003.9
20260509205603 68 333 4.3 11.3 0.00 0.00 0.00 37 1003.9
20260509205424 68 338 4.3 8.7 0.00 0.00 0.00 35 1003.9
20260509205203 68 338 4.3 8.7 0.00 0.00 0.00 38 1003.9
20260509205003 68 343 4.3 8.7 0.00 0.00 0.00 38 1003.8
20260509204824 67 345 4.3 8.7 0.00 0.00 0.00 38 1003.9
20260509204603 67 344 4.3 10.4 0.00 0.00 0.00 36 1003.9
20260509204403 67 335 4.3 10.4 0.00 0.00 0.00 36 1003.9
20260509204224 67 333 4.3 10.4 0.00 0.00 0.00 39 1003.9
20260509204003 66 332 4.3 10.4 0.00 0.00 0.00 37 1003.9
20260509203824 66 333 3.5 10.4 0.00 0.00 0.00 39 1004.0
20260509203603 66 340 3.5 8.7 0.00 0.00 0.00 41 1003.9
20260509203424 66 354 3.5 8.7 0.00 0.00 0.00 41 1004.0
20260509203203 65 358 3.5 7.8 0.00 0.00 0.00 43 1003.9
20260509203003 65 351 4.3 7.8 0.00 0.00 0.00 43 1004.0
20260509202803 65 349 3.5 7.8 0.00 0.00 0.00 43 1004.0
20260509202603 64 349 3.5 7.8 0.00 0.00 0.00 45 1004.1
20260509202403 64 345 3.5 7.8 0.00 0.00 0.00 47 1004.1
20260509202203 63 350 2.6 7.8 0.00 0.00 0.00 44 1004.1
20260509202003 63 356 2.6 7.0 0.00 0.00 0.00 47 1004.0
20260509201803 63 1 3.5 7.0 0.00 0.00 0.00 48 1004.2
20260509201603 62 1 2.6 7.0 0.00 0.00 0.00 46 1004.2
20260509201403 62 1 2.6 7.0 0.00 0.00 0.00 46 1004.3
20260509201203 62 359 2.6 7.0 0.00 0.00 0.00 46 1004.2
20260509201003 62 360 2.6 6.1 0.00 0.00 0.00 47 1004.3
20260509200803 62 360 2.6 6.1 0.00 0.00 0.00 48 1004.2
20260509200624 62 360 2.6 6.1 0.00 0.00 0.00 46 1004.3
20260509200403 62 1 3.5 6.1 0.00 0.00 0.00 45 1004.3
20260509200203 62 3 3.5 7.0 0.00 0.00 0.00 45 1004.3
20260509200024 62 8 3.5 7.0 0.00 0.00 0.00 46 1004.4
20260509195803 62 5 3.5 7.0 0.00 0.00 0.00 45 1004.4
20260509195603 62 7 3.5 7.0 0.00 0.00 0.00 45 1004.3
20260509195403 62 4 3.5 8.7 0.00 0.00 0.00 44 1004.3
20260509195203 62 5 3.5 10.4 0.00 0.00 0.00 45 1004.3
20260509195024 62 7 4.3 10.4 0.00 0.00 0.00 43 1004.3
20260509194803 62 7 4.3 10.4 0.00 0.00 0.00 43 1004.3
20260509194603 62 9 5.2 10.4 0.00 0.00 0.00 42 1004.4
20260509194403 63 12 4.3 10.4 0.00 0.00 0.00 41 1004.5
20260509194224 63 15 5.2 8.7 0.00 0.00 0.00 42 1004.5
20260509194003 63 11 5.2 9.6 0.00 0.00 0.00 44 1004.4
20260509193824 64 11 5.2 9.6 0.00 0.00 0.00 40 1004.4
20260509193603 64 6 5.2 9.6 0.00 0.00 0.00 42 1004.5
20260509193403 64 3 5.2 9.6 0.00 0.00 0.00 41 1004.5
20260509193203 64 350 5.2 9.6 0.00 0.00 0.00 39 1004.5
20260509193024 65 345 4.3 9.6 0.00 0.00 0.00 39 1004.4
20260509192824 65 339 4.3 7.8 0.00 0.00 0.00 39 1004.3
20260509192603 65 341 4.3 7.8 0.00 0.00 0.00 39 1004.3
20260509192403 65 341 4.3 7.0 0.00 0.00 0.00 37 1004.4
20260509192203 65 354 3.5 7.0 0.00 0.00 0.00 37 1004.6